TimeCDT,TemperatureF,Dew PointF,Humidity,Sea Level PressureIn,VisibilityMPH,Wind Direction,Wind SpeedMPH,Gust SpeedMPH,PrecipitationIn,Events,Conditions,WindDirDegrees,DateUTC
12:15 AM,66.2,55.4,68,30.07,10.0,Calm,Calm,-,N/A,,Clear,0,2013-09-16 05:15:00
12:35 AM,66.2,57.2,73,30.08,10.0,Calm,Calm,-,N/A,,Scattered Clouds,0,2013-09-16 05:35:00
12:55 AM,66.2,57.2,73,30.09,10.0,Calm,Calm,-,N/A,,Mostly Cloudy,0,2013-09-16 05:55:00
1:15 AM,68.0,55.4,64,30.10,10.0,Calm,Calm,-,N/A,,Overcast,0,2013-09-16 06:15:00
1:35 AM,68.0,55.4,64,30.09,10.0,Calm,Calm,-,N/A,,Overcast,0,2013-09-16 06:35:00
1:55 AM,68.0,55.4,64,30.09,10.0,NW,3.5,-,N/A,,Overcast,310,2013-09-16 06:55:00
2:15 AM,68.0,55.4,64,30.10,10.0,NNW,3.5,-,N/A,,Overcast,330,2013-09-16 07:15:00
2:35 AM,68.0,55.4,64,30.10,10.0,North,4.6,-,N/A,,Overcast,350,2013-09-16 07:35:00
2:55 AM,66.2,57.2,73,30.10,10.0,North,6.9,-,N/A,,Overcast,360,2013-09-16 07:55:00
3:15 AM,66.2,57.2,73,30.11,10.0,North,6.9,-,N/A,,Overcast,360,2013-09-16 08:15:00
3:35 AM,66.2,57.2,73,30.11,10.0,North,8.1,-,N/A,,Overcast,10,2013-09-16 08:35:00
3:55 AM,66.2,57.2,73,30.12,10.0,North,6.9,-,N/A,,Overcast,10,2013-09-16 08:55:00
4:15 AM,66.2,57.2,73,30.12,10.0,North,6.9,-,N/A,,Overcast,10,2013-09-16 09:15:00
4:35 AM,66.2,57.2,73,30.12,10.0,North,6.9,-,N/A,,Overcast,360,2013-09-16 09:35:00
4:55 AM,66.2,57.2,73,30.13,10.0,North,6.9,-,N/A,,Overcast,350,2013-09-16 09:55:00
5:15 AM,66.2,57.2,73,30.13,10.0,North,8.1,-,N/A,,Overcast,10,2013-09-16 10:15:00
5:35 AM,66.2,57.2,73,30.15,10.0,North,10.4,-,N/A,,Overcast,360,2013-09-16 10:35:00
5:55 AM,64.4,57.2,77,30.15,10.0,North,8.1,-,N/A,,Overcast,10,2013-09-16 10:55:00
6:15 AM,64.4,57.2,77,30.16,10.0,North,6.9,-,N/A,,Overcast,360,2013-09-16 11:15:00
6:35 AM,64.4,57.2,77,30.17,10.0,North,4.6,-,N/A,,Overcast,350,2013-09-16 11:35:00
6:55 AM,64.4,57.2,77,30.17,10.0,North,6.9,-,N/A,,Overcast,10,2013-09-16 11:55:00
7:15 AM,64.4,57.2,77,30.18,10.0,North,6.9,-,N/A,,Overcast,10,2013-09-16 12:15:00
7:35 AM,64.4,57.2,77,30.19,10.0,North,6.9,-,N/A,,Overcast,360,2013-09-16 12:35:00
7:55 AM,64.4,57.2,77,30.19,10.0,North,10.4,16.1,N/A,,Overcast,350,2013-09-16 12:55:00
8:15 AM,64.4,57.2,77,30.20,10.0,North,9.2,-,N/A,,Overcast,10,2013-09-16 13:15:00
8:35 AM,64.4,57.2,77,30.20,10.0,NNE,11.5,16.1,N/A,,Overcast,20,2013-09-16 13:35:00
8:55 AM,64.4,57.2,77,30.21,10.0,NNE,11.5,-,N/A,,Overcast,20,2013-09-16 13:55:00
9:15 AM,64.4,57.2,77,30.21,10.0,NNE,6.9,-,N/A,,Overcast,30,2013-09-16 14:15:00
9:35 AM,64.4,57.2,77,30.22,10.0,NNE,5.8,-,N/A,,Overcast,20,2013-09-16 14:35:00
9:55 AM,66.2,57.2,73,30.23,10.0,NNE,9.2,-,N/A,,Overcast,20,2013-09-16 14:55:00
10:15 AM,66.2,57.2,73,30.23,10.0,NE,9.2,-,N/A,,Mostly Cloudy,40,2013-09-16 15:15:00
10:35 AM,68.0,57.2,68,30.23,10.0,NNE,9.2,-,N/A,,Overcast,20,2013-09-16 15:35:00
10:55 AM,69.8,57.2,64,30.23,10.0,NNE,9.2,16.1,N/A,,Overcast,20,2013-09-16 15:55:00
11:15 AM,69.8,59.0,68,30.23,10.0,NNE,8.1,-,N/A,,Overcast,30,2013-09-16 16:15:00
11:35 AM,69.8,57.2,64,30.23,10.0,North,10.4,-,N/A,,Overcast,10,2013-09-16 16:35:00
11:55 AM,69.8,57.2,64,30.23,10.0,NNE,10.4,-,N/A,,Overcast,30,2013-09-16 16:55:00
12:15 PM,71.6,57.2,60,30.23,10.0,NNE,9.2,-,N/A,,Mostly Cloudy,30,2013-09-16 17:15:00
12:35 PM,71.6,59.0,64,30.23,10.0,NNE,10.4,-,N/A,,Mostly Cloudy,20,2013-09-16 17:35:00
12:55 PM,71.6,57.2,60,30.24,10.0,NNE,10.4,-,N/A,,Mostly Cloudy,30,2013-09-16 17:55:00
1:15 PM,71.6,57.2,60,30.23,10.0,NNE,11.5,16.1,N/A,,Overcast,20,2013-09-16 18:15:00
1:35 PM,71.6,57.2,60,30.23,10.0,NNE,12.7,-,N/A,,Overcast,30,2013-09-16 18:35:00
1:55 PM,71.6,57.2,60,30.23,10.0,NNE,9.2,16.1,N/A,,Overcast,20,2013-09-16 18:55:00
2:15 PM,73.4,57.2,57,30.23,10.0,NNE,9.2,-,N/A,,Overcast,30,2013-09-16 19:15:00
2:35 PM,71.6,57.2,60,30.22,10.0,NNE,10.4,-,N/A,,Mostly Cloudy,30,2013-09-16 19:35:00
2:55 PM,71.6,57.2,60,30.22,10.0,North,8.1,16.1,N/A,,Scattered Clouds,10,2013-09-16 19:55:00
3:15 PM,73.4,55.4,53,30.21,10.0,North,10.4,18.4,N/A,,Scattered Clouds,10,2013-09-16 20:15:00
3:35 PM,73.4,57.2,57,30.21,10.0,NE,12.7,18.4,N/A,,Scattered Clouds,50,2013-09-16 20:35:00
3:55 PM,71.6,55.4,57,30.21,10.0,NNE,9.2,-,N/A,,Scattered Clouds,30,2013-09-16 20:55:00
4:15 PM,71.6,55.4,57,30.21,10.0,North,8.1,-,N/A,,Scattered Clouds,10,2013-09-16 21:15:00
4:35 PM,71.6,55.4,57,30.21,10.0,NE,6.9,-,N/A,,Clear,40,2013-09-16 21:35:00
4:55 PM,71.6,55.4,57,30.21,10.0,NNE,8.1,16.1,N/A,,Clear,30,2013-09-16 21:55:00
5:15 PM,69.8,55.4,60,30.21,10.0,NE,6.9,-,N/A,,Scattered Clouds,50,2013-09-16 22:15:00
5:35 PM,69.8,55.4,60,30.21,10.0,NNE,4.6,-,N/A,,Scattered Clouds,30,2013-09-16 22:35:00
5:55 PM,69.8,55.4,60,30.20,10.0,NNE,9.2,-,N/A,,Scattered Clouds,30,2013-09-16 22:55:00
6:15 PM,69.8,55.4,60,30.20,10.0,NNE,6.9,-,N/A,,Clear,30,2013-09-16 23:15:00
6:35 PM,66.2,55.4,68,30.20,10.0,NNE,5.8,-,N/A,,Clear,30,2013-09-16 23:35:00
6:55 PM,66.2,55.4,68,30.20,10.0,NNE,5.8,-,N/A,,Scattered Clouds,30,2013-09-16 23:55:00
7:15 PM,66.2,55.4,68,30.21,10.0,NNE,4.6,-,N/A,,Mostly Cloudy,30,2013-09-17 00:15:00
7:35 PM,64.4,55.4,73,30.21,10.0,NNE,3.5,-,N/A,,Mostly Cloudy,20,2013-09-17 00:35:00
7:55 PM,64.4,55.4,73,30.22,10.0,North,4.6,-,N/A,,Mostly Cloudy,10,2013-09-17 00:55:00
8:15 PM,62.6,55.4,77,30.22,10.0,NNE,3.5,-,N/A,,Mostly Cloudy,20,2013-09-17 01:15:00
8:35 PM,62.6,55.4,77,30.22,10.0,NNE,6.9,-,N/A,,Scattered Clouds,20,2013-09-17 01:35:00
8:55 PM,62.6,55.4,77,30.22,10.0,NNE,5.8,-,N/A,,Mostly Cloudy,20,2013-09-17 01:55:00
9:15 PM,62.6,55.4,77,30.23,10.0,NNE,4.6,-,N/A,,Scattered Clouds,30,2013-09-17 02:15:00
9:35 PM,62.6,55.4,77,30.22,10.0,NNE,6.9,-,N/A,,Scattered Clouds,30,2013-09-17 02:35:00
9:55 PM,62.6,53.6,72,30.23,10.0,NNE,6.9,-,N/A,,Clear,30,2013-09-17 02:55:00
10:15 PM,60.8,53.6,77,30.23,10.0,NNE,6.9,-,N/A,,Clear,30,2013-09-17 03:15:00
10:35 PM,60.8,53.6,77,30.24,10.0,NNE,5.8,-,N/A,,Clear,30,2013-09-17 03:35:00
10:55 PM,60.8,53.6,77,30.24,10.0,NNE,4.6,-,N/A,,Clear,20,2013-09-17 03:55:00
11:15 PM,59.0,53.6,82,30.25,10.0,NNE,4.6,-,N/A,,Mostly Cloudy,20,2013-09-17 04:15:00
11:35 PM,60.8,53.6,77,30.25,10.0,NNE,4.6,-,N/A,,Mostly Cloudy,30,2013-09-17 04:35:00
11:55 PM,60.8,53.6,77,30.25,10.0,NNE,4.6,-,N/A,,Scattered Clouds,20,2013-09-17 04:55:00